Flag for Saudi Arabia Weather past 2 weeks in Medina, Saudi Arabia

Now
91 °F

Clear.


Feels Like: 87 °F
Forecast: 70 / 106 °F
Wind: 10 mph from Northeast

Location: Madinah

Current Time: Sep 24, 2014 at 12:21:23 AM

Latest Report: Sep 24, 2014 at 12:00 AM


Visibility: 10 mi

Pressure: 29.89 "Hg

Humidity: 8%

Dew point: 21 °F

Location of MedinaLocation

Historic Weather in Medina — Graph

°F

Medina temperature yesterday

Maximum temperature yesterday: 106 °F (at 1:00 PM)
Minimum temperature yesterday: 79 °F (at 6:00 AM)
Average temperature yesterday: 94 °F

Past Weeks' High & Low Weather Summary

 TemperatureHumidityPressure
High108 °F (Sep 12, 3:00 PM)30% (Sep 15, 12:00 AM)29.98 "Hg (Sep 15, 12:00 AM)
Low79 °F (Sep 17, 7:00 AM)3% (Sep 10, 9:00 AM)29.80 "Hg (Sep 9, 3:00 PM)
Average96 °F11%29.89 "Hg
* Reported Sep 8 11:00 PM — Sep 23 11:00 PM, Medina, Weather by CustomWeather, © 2014

Note: Actual official high and low records may vary slightly from our data, if they occured in-between our weather recording intervals... More about our weather records

Advertising

Medina weather history for previous 24 hours

 ConditionsComfort  
Time TempWeatherWind HumidityBarometerVisibility
11:00 PM
Sep 23
93 °FClear.8 mph8%29.89 "Hg10 mi
10:00 PM97 °FClear.5 mph6%29.89 "Hg10 mi
9:00 PM99 °FClear.7 mph7%29.86 "Hg10 mi
8:00 PM100 °FClear.7 mph5%29.86 "Hg10 mi
7:00 PM102 °FClear.7 mph4%29.83 "Hg10 mi
6:00 PM104 °FSunny.8 mph4%29.83 "Hg10 mi
5:00 PM106 °FSunny.7 mph4%29.83 "Hg10 mi
4:00 PM106 °FSunny.12 mph4%29.83 "Hg10 mi
3:00 PM104 °FSunny.5 mph3%29.83 "Hg10 mi
2:00 PM104 °FSunny.5 mph4%29.86 "Hg10 mi
1:00 PM106 °FSunny.8 mph5%29.86 "Hg10 mi
12:00 PM100 °FSunny.7 mph7%29.89 "Hg10 mi
11:00 AM97 °FSunny.8 mph7%29.92 "Hg5 mi
10:00 AM95 °FSunny.3 mph9%29.92 "Hg4 mi
9:00 AM90 °FSunny.3 mph13%29.92 "Hg4 mi
8:00 AM84 °FSunny.7 mph16%29.92 "Hg4 mi
7:00 AM79 °FSunny.6 mph21%29.89 "Hg10 mi
6:00 AM79 °FClear.5 mph23%29.89 "Hg10 mi
5:00 AM81 °FClear.No wind21%29.86 "Hg10 mi
4:00 AM82 °FClear.No wind21%29.86 "Hg10 mi
3:00 AM88 °FClear.6 mph18%29.86 "Hg10 mi
2:00 AM88 °FClear.No wind19%29.86 "Hg10 mi
1:00 AM91 °FClear.5 mph18%29.89 "Hg10 mi
12:00 AM91 °FClear.6 mph20%29.89 "Hg10 mi
Weather by CustomWeather, © 2014

See weather overviewHow to use our weather pages